Hourly Data Report for July 17, 2021

POND INLET A
NUNAVUT
Current Station Operator: NAVCAN

72°41'22.000" N
77°58'08.000" W
61.60 m
2403206
71095
YIO

Download Data

Hourly Data (July 2021)
Hourly Data Report for July 17, 2021
TIME
LST
Temp Definition
°C
Dew Point Definition
°C
Rel Hum Definition
%
Precip. Amount Definition
mm

Wind Dir Definition
10's deg

Wind Spd Definition
km/h
Visibility Definition
km
Stn Press Definition
kPa
Hmdx Definition


Wind Chill Definition


Weather Definition


00:00 4.7 0.0 71 0.0 22 26 16.1 100.31     LegendNANA
01:00 4.8 0.6 74 0.0 23 26 16.1 100.38     LegendNANA
02:00 4.7 1.0 77 0.0 21 21 16.1 100.46     LegendNANA
03:00 5.2 1.2 75 0.0 22 17 16.1 100.53     LegendNANA
04:00 3.5 0.6 82 0.0 25 5 16.1 100.58     LegendNANA
05:00 3.5 0.6 81 0.0 25 8 16.1 100.60     LegendNANA
06:00 4.9 1.1 76 0.0 28 9 16.1 100.64     LegendNANA
07:00 4.1 0.8 79 0.0 36 5 16.1 100.69     LegendNANA
08:00 4.6 0.9 77 0.0 32 5 16.1 100.72     LegendNANA
09:00 4.8 1.0 76 0.0 34 5 16.1 100.72     LegendNANA
10:00 5.2 1.0 74 0.0 29 8 16.1 100.73     LegendNANA
11:00 5.8 1.4 73 0.0 30 8 16.1 100.69     LegendNANA
12:00 6.4 0.8 67 0.0 30 8 16.1 100.66     LegendNANA
13:00 6.8 1.2 68 0.0 28 9 16.1 100.65     LegendNANA
14:00 6.9 0.1 62 0.0 28 8 16.1 100.67     LegendNANA
15:00 7.2 -1.0 56 0.0 29 8 16.1 100.64     LegendNANA
16:00 7.6 0.1 59 0.0 32 9 16.1 100.60     LegendNANA
17:00 6.9 -0.4 60 0.0 31 5 16.1 100.60     LegendNANA
18:00 6.1 -0.2 64 0.0 3 13 16.1 100.59     LegendNANA
19:00 5.9 -0.3 65 0.0 4 9 16.1 100.58     LegendNANA
20:00 4.9 0.4 73 0.0 3 13 16.1 100.54     LegendNANA
21:00 6.6 1.2 68 0.0 19 9 16.1 100.53     LegendNANA
22:00 5.4 0.9 73 0.0 32 9 14.5 100.51     LegendNANA
23:00 5.0 0.7 74 0.0 17 17 16.1 100.50     LegendNANA

Notes on Data Quality.

Legend

  • E = Estimated
  • M = Missing
  • NA = Not Available*
  • [empty] = Indicates an unobserved value
Date modified: